Location: Newark
(45.5000°N, 11.4167°E)
Time: 12:28:50
(UTC+00:00)

Transit 2A Rocket - Pass Details

Date: 02 September 2019
Orbit: 592 x 911 km, 66.7° (Epoch: 22 September)

Event Time Altitude Azimuth Distance (km) Brightness Sun altitude
Rises 00:39:00 0° 326° (NW) 2,985 8.4 -33.1°
Reaches altitude 10° 00:41:22 10° 326° (NW) 2,030 7.5 -33.0°
Enters shadow 00:41:38 12° 326° (NW) 1,924 7.4 -32.9°
